STARLINK-1578, 46082

Orbit data source: Space-Track

STARLINK-1578, 46082 is a payload satellite owned by SpaceX/Seattle (US) in LEO that was launched on Fri, 07 Aug 2020 UTC via an FALCON 9 launch vehicle from the Air Force Eastern Test Range (AFETR). Payload-class satellites include a variety of spacecraft equipped with specific instruments for various scientific and technological missions. These include communications satellites like Starlink; space stations such as the ISS; scientific satellites like the Hubble; Earth observation satellites from companies like Planet Labs, Umbra, and HawkEye 360; GPS; miniature CubeSats for education and research; and military/defense satellites.

Loading next visibility...
Identifier
46082, 2020-055BH
Orbit
LEO
Country
Flag of USUS
Related business
Manufacturer
SpaceX/Seattle
Mission
Operational Commercial Communications
Bus & Motor
STARLINK, Unknown motor
Mass
260 kg wet, ~248 kg dry
Launch date (UTC)
2020-08-07 (5 years ago)
Launch vehicle
FALCON 9
Launch site
Air Force Eastern Test Range (AFETR)
Object type
Payload
Rocket body
Debris
Shape & HBR
Box + 1 Pan, 10.1 m
Radar Cross Section
13.562 m², Large (>1 m²)

Expand to show TLE details & history
Last TLE update: 2 days ago

TLE from 2 days ago
0 STARLINK-1578
1 46082U 20055BH  25312.13253126  .00004097  00000-0  29370-3 0  9992
2 46082  53.0548 282.3082 0001514  85.4573 274.6589 15.06409265290982
Epoch: 2025-11-08T03:10Z
TLE epoch observation values (Epoch: 2025-11-08T03:10:50.700Z)
Latitude
-0.00004°
Longitude
-172.96961°
Altitude
547.977 km
Speed
7.589 km/s
True Right ascension
18h 49m 13s
True Declination
0° 00' 00"
Sunlit
Object was in daylight at epoch
Visualization orbit readout
Latitude
Unknown
Longitude
Unknown
Altitude
Unknown
Speed
Unknown
Apparent Right ascension
Unknown
Apparent Declination
Unknown
Sunlit
N/A
Visualization observer readout
Local Sidereal Time
18:04:14
Azimuth
Unknown
Elevation
Unknown
Doppler factor
Unknown
Orbital elements
Apogee altitude
548.502 km
Perigee altitude
546.405 km
Semi-major axis
6,925.591 km
Eccentricity
0.00015
Inclination
53.0548°
RAAN
282.3082°
Arg. of periapsis
85.4573°
True anomaly
274.64161°
Mean anomaly
274.6589°
Eccentric anomaly
274.65025°
Mean motion
3.76581 °/min
Orbital period
95.6 mins
BSTAR
0.0002937
Loading maneuver chart data...
Computing Atmospheric mass density...

Documentation

Showing up to 5 results
|